GEFSSE_prec_meanprecacc_126.txt.gz
Total_Precipitation_Accumulation
0.04 0.04 0.09 0.08 0.06 0.07 0.08 0.09 0.09 0.08 0.07 0.08 0.09 0.07 0.04 0.03 0.02 0.02 0.02 0.02 0.04 0.06 0.08 0.08 0.11 0.11 0.13 0.13 0.14 0.14 0.14 0.14 0.16 0.19 0.21 0.22 0.25 0.35 0.44 0.41 0.53 0.39 0.31
0.02 0.03 0.08 0.08 0.06 0.06 0.07 0.08 0.10 0.10 0.08 0.06 0.06 0.05 0.04 0.04 0.03 0.03 0.03 0.03 0.05 0.06 0.06 0.07 0.07 0.07 0.07 0.07 0.08 0.08 0.10 0.14 0.20 0.24 0.27 0.27 0.32 0.39 0.40 0.37 0.51 0.36 0.26
0.04 0.03 0.05 0.08 0.06 0.07 0.08 0.08 0.10 0.09 0.08 0.08 0.07 0.06 0.05 0.05 0.04 0.04 0.04 0.05 0.06 0.06 0.06 0.06 0.05 0.04 0.04 0.05 0.05 0.06 0.11 0.17 0.29 0.39 0.53 0.40 0.25 0.38 0.41 0.38 0.32 0.21 0.22
0.04 0.02 0.02 0.06 0.06 0.06 0.07 0.08 0.09 0.10 0.11 0.10 0.09 0.07 0.07 0.06 0.06 0.07 0.06 0.06 0.06 0.06 0.06 0.06 0.05 0.04 0.04 0.05 0.06 0.07 0.11 0.18 0.32 0.50 0.76 0.41 0.19 0.24 0.29 0.24 0.20 0.18 0.18
0.05 0.03 0.04 0.05 0.05 0.06 0.06 0.08 0.09 0.10 0.11 0.12 0.10 0.07 0.08 0.08 0.09 0.09 0.08 0.06 0.06 0.06 0.06 0.06 0.05 0.05 0.05 0.06 0.08 0.10 0.13 0.19 0.29 0.45 0.52 0.44 0.44 0.25 0.19 0.18 0.20 0.20 0.18
0.07 0.05 0.05 0.06 0.06 0.06 0.07 0.08 0.09 0.11 0.12 0.12 0.10 0.09 0.09 0.10 0.10 0.09 0.08 0.07 0.07 0.06 0.07 0.07 0.06 0.06 0.07 0.07 0.10 0.14 0.20 0.28 0.31 0.33 0.30 0.38 0.44 0.28 0.20 0.24 0.27 0.22 0.20
0.09 0.10 0.10 0.09 0.08 0.08 0.08 0.08 0.10 0.10 0.11 0.11 0.10 0.10 0.10 0.10 0.10 0.09 0.09 0.08 0.08 0.06 0.07 0.09 0.09 0.07 0.07 0.08 0.12 0.16 0.23 0.32 0.35 0.29 0.26 0.42 0.44 0.25 0.26 0.39 0.48 0.37 0.24
0.14 0.17 0.18 0.17 0.15 0.12 0.11 0.10 0.11 0.12 0.13 0.13 0.13 0.12 0.11 0.11 0.12 0.12 0.12 0.10 0.10 0.10 0.10 0.10 0.11 0.09 0.09 0.10 0.14 0.19 0.21 0.22 0.25 0.26 0.26 0.38 0.31 0.23 0.30 0.47 0.63 0.61 0.50
0.32 0.44 0.37 0.24 0.20 0.20 0.18 0.17 0.16 0.16 0.18 0.17 0.16 0.15 0.15 0.15 0.15 0.16 0.17 0.16 0.16 0.18 0.18 0.14 0.12 0.14 0.14 0.14 0.15 0.20 0.22 0.24 0.31 0.40 0.36 0.39 0.28 0.28 0.37 0.47 0.59 0.66 0.65
0.44 0.50 0.48 0.32 0.27 0.21 0.18 0.19 0.21 0.21 0.22 0.22 0.19 0.19 0.18 0.18 0.19 0.23 0.23 0.29 0.30 0.34 0.34 0.29 0.22 0.21 0.24 0.23 0.20 0.24 0.25 0.25 0.26 0.35 0.53 0.46 0.36 0.41 0.50 0.52 0.58 0.69 0.73
0.75 0.67 0.59 0.38 0.29 0.28 0.24 0.23 0.28 0.28 0.28 0.27 0.29 0.27 0.29 0.33 0.45 0.59 0.54 0.64 0.60 0.61 0.60 0.56 0.51 0.50 0.52 0.42 0.38 0.42 0.38 0.25 0.31 0.42 0.55 0.47 0.50 0.69 0.80 0.68 0.64 0.69 0.72
1.12 1.01 0.79 0.51 0.41 0.41 0.35 0.37 0.40 0.41 0.52 0.51 0.64 0.69 0.75 0.88 0.87 0.74 0.92 1.14 1.19 1.18 1.11 1.08 1.16 1.06 0.88 0.72 1.01 1.17 0.53 0.34 0.46 0.56 0.64 0.77 0.93 1.16 1.29 1.08 0.88 0.79 0.75
1.29 1.14 0.98 0.77 0.60 0.50 0.52 0.56 0.63 0.73 1.00 0.88 0.83 0.96 1.21 1.14 0.95 0.87 1.02 1.32 1.61 1.61 1.49 1.65 1.78 1.40 1.38 1.44 1.60 1.64 0.97 0.68 0.61 0.76 0.72 1.00 1.26 1.55 1.76 1.59 1.26 1.08 0.95
1.86 1.59 1.31 1.14 0.96 0.92 0.90 0.85 0.82 0.89 1.00 0.96 1.05 1.00 1.31 1.38 1.25 1.20 1.30 1.42 1.65 1.85 2.12 2.12 2.24 2.13 2.03 1.85 1.89 1.81 1.51 1.32 1.10 1.24 1.39 1.44 1.56 1.77 2.04 2.07 1.79 1.47 1.24
2.30 2.07 1.85 1.60 1.47 1.46 1.37 1.25 1.07 1.13 1.11 1.09 1.25 1.27 1.42 1.66 1.68 1.72 1.71 1.63 1.57 1.93 2.34 2.49 2.27 2.52 2.56 2.20 1.91 1.77 1.67 1.65 1.76 1.93 1.89 2.14 2.10 2.06 2.26 2.33 2.16 1.90 1.72
2.46 2.55 2.59 2.38 2.22 2.11 2.02 1.89 1.68 1.56 1.61 1.55 1.59 1.74 1.90 2.04 2.17 2.20 2.08 1.95 1.76 1.82 2.10 2.30 2.31 2.53 2.41 2.31 1.76 1.67 1.62 1.68 1.80 1.83 1.83 2.34 2.35 2.15 2.14 2.26 2.32 2.19 2.02
2.64 3.02 3.22 3.23 3.12 2.97 2.82 2.59 2.26 2.10 2.15 2.30 2.32 2.36 2.36 2.41 2.59 2.48 2.23 1.97 1.87 1.93 2.03 2.03 2.04 2.16 2.01 1.95 1.74 1.81 1.76 1.62 1.48 1.50 1.64 1.87 1.89 1.77 1.75 1.84 2.03 2.19 2.32
2.89 3.37 3.64 3.81 3.93 3.79 3.62 3.29 2.82 2.56 2.51 2.55 2.62 2.61 2.58 2.57 2.49 2.41 2.08 1.76 1.84 1.93 1.91 1.89 1.78 1.86 1.84 1.89 1.88 1.76 1.80 1.65 1.35 1.31 1.36 1.36 1.45 1.34 1.51 1.61 1.70 1.90 2.33
3.09 3.66 4.12 4.59 4.80 4.65 4.17 3.55 3.09 3.00 2.91 2.78 2.76 2.63 2.52 2.37 2.24 2.32 2.00 1.81 1.83 1.77 1.67 1.59 1.75 1.91 1.84 1.86 1.81 1.65 1.46 1.29 1.09 0.96 0.95 0.90 1.04 1.16 1.33 1.44 1.49 1.60 2.07
3.17 3.70 4.34 4.96 5.10 4.77 4.04 3.45 3.30 3.15 2.88 2.62 2.34 2.13 1.96 1.93 1.85 1.93 1.72 1.63 1.71 1.68 1.55 1.61 1.74 1.82 1.63 1.69 1.60 1.34 1.20 0.99 0.91 0.80 0.68 0.68 0.67 0.70 0.89 1.21 1.49 1.30 1.60
3.40 3.92 4.46 4.90 4.80 4.47 3.99 3.50 3.13 2.69 2.39 2.12 1.79 1.55 1.42 1.34 1.35 1.52 1.35 1.41 1.47 1.41 1.33 1.32 1.40 1.43 1.26 1.51 1.59 1.14 0.85 0.75 0.69 0.60 0.60 0.58 0.53 0.62 0.80 1.05 1.25 1.32 1.27
3.28 3.64 3.92 3.84 3.42 3.17 2.98 2.72 2.34 2.18 2.08 1.99 1.84 1.59 1.30 1.24 1.21 1.15 1.13 1.12 1.17 1.20 1.10 1.05 1.17 1.15 0.98 1.25 1.36 1.21 0.83 0.66 0.56 0.46 0.49 0.49 0.52 0.66 0.69 0.80 1.04 1.18 1.13
2.64 2.82 2.80 2.55 2.17 2.03 1.97 1.78 1.80 1.92 1.95 1.89 1.85 1.73 1.48 1.35 1.30 1.25 1.14 1.04 1.00 1.01 1.01 0.98 1.05 1.06 0.94 0.99 1.12 1.28 1.00 0.68 0.54 0.39 0.40 0.47 0.60 0.72 0.73 0.81 0.89 1.04 1.05
1.81 1.79 1.75 1.66 1.53 1.44 1.43 1.38 1.30 1.39 1.57 1.68 1.81 1.82 1.80 1.65 1.47 1.35 1.21 1.02 0.87 0.84 0.89 0.80 0.86 0.98 1.00 0.89 0.89 0.97 0.99 1.01 0.92 0.56 0.35 0.38 0.57 0.67 0.70 0.72 0.80 0.95 1.06
1.15 1.18 1.14 1.19 1.21 1.20 1.25 1.39 1.29 1.10 1.04 0.97 1.01 1.11 1.22 1.30 1.22 1.06 0.99 0.91 0.80 0.72 0.71 0.75 0.86 0.94 0.97 0.89 0.89 0.87 0.92 1.06 1.08 0.94 0.61 0.53 0.58 0.56 0.55 0.61 0.73 0.88 1.02
0.80 0.84 0.96 1.06 1.16 1.12 1.12 1.16 1.20 1.12 1.04 0.94 0.87 0.87 0.82 0.84 0.84 0.78 0.74 0.74 0.72 0.70 0.70 0.70 0.76 0.84 0.93 0.97 0.98 1.02 1.06 1.08 1.14 1.22 1.00 0.83 0.76 0.66 0.64 0.73 0.86 1.03 1.15

GEFSSE_prec_meanprecacc_132.txt.gz
Total_Precipitation_Accumulation
0.04 0.04 0.09 0.08 0.07 0.08 0.10 0.11 0.11 0.09 0.07 0.09 0.10 0.07 0.04 0.03 0.03 0.02 0.02 0.03 0.05 0.07 0.10 0.11 0.13 0.14 0.15 0.16 0.16 0.16 0.15 0.15 0.17 0.20 0.21 0.23 0.26 0.38 0.50 0.50 0.63 0.43 0.34
0.02 0.03 0.08 0.08 0.07 0.07 0.09 0.10 0.11 0.11 0.09 0.07 0.07 0.06 0.05 0.05 0.04 0.03 0.03 0.04 0.06 0.08 0.09 0.10 0.09 0.10 0.10 0.10 0.10 0.10 0.11 0.15 0.22 0.26 0.29 0.28 0.33 0.43 0.49 0.48 0.64 0.39 0.28
0.04 0.03 0.05 0.08 0.06 0.07 0.09 0.10 0.11 0.10 0.10 0.09 0.07 0.06 0.06 0.05 0.05 0.05 0.05 0.06 0.07 0.09 0.09 0.09 0.08 0.06 0.06 0.07 0.07 0.08 0.13 0.19 0.33 0.49 0.67 0.45 0.26 0.40 0.47 0.45 0.38 0.24 0.24
0.04 0.02 0.02 0.06 0.07 0.06 0.08 0.09 0.11 0.11 0.12 0.12 0.09 0.08 0.07 0.07 0.07 0.08 0.07 0.07 0.08 0.09 0.09 0.08 0.07 0.05 0.05 0.06 0.08 0.09 0.13 0.21 0.40 0.69 0.98 0.45 0.20 0.25 0.31 0.27 0.23 0.20 0.22
0.05 0.03 0.04 0.05 0.06 0.06 0.07 0.09 0.10 0.11 0.12 0.13 0.11 0.08 0.08 0.09 0.10 0.11 0.10 0.08 0.08 0.08 0.08 0.08 0.07 0.07 0.06 0.07 0.09 0.12 0.15 0.22 0.36 0.64 0.65 0.52 0.48 0.26 0.21 0.20 0.23 0.24 0.24
0.07 0.05 0.05 0.06 0.06 0.06 0.07 0.08 0.10 0.12 0.13 0.13 0.11 0.10 0.10 0.11 0.11 0.11 0.10 0.09 0.08 0.08 0.09 0.08 0.07 0.08 0.08 0.09 0.12 0.15 0.21 0.31 0.44 0.41 0.35 0.48 0.48 0.28 0.22 0.26 0.31 0.25 0.25
0.09 0.10 0.10 0.10 0.08 0.09 0.08 0.09 0.10 0.11 0.12 0.12 0.11 0.12 0.12 0.12 0.11 0.11 0.11 0.10 0.09 0.08 0.09 0.11 0.10 0.08 0.09 0.10 0.13 0.17 0.25 0.36 0.47 0.32 0.33 0.56 0.48 0.25 0.28 0.41 0.51 0.41 0.28
0.14 0.17 0.18 0.17 0.15 0.13 0.11 0.11 0.12 0.13 0.14 0.14 0.14 0.14 0.13 0.13 0.14 0.13 0.13 0.12 0.12 0.12 0.11 0.12 0.13 0.11 0.11 0.11 0.15 0.19 0.22 0.24 0.31 0.30 0.32 0.46 0.34 0.24 0.31 0.49 0.65 0.62 0.52
0.34 0.45 0.37 0.24 0.20 0.21 0.19 0.18 0.17 0.17 0.19 0.18 0.18 0.17 0.16 0.16 0.16 0.17 0.18 0.18 0.18 0.19 0.19 0.16 0.13 0.15 0.15 0.14 0.16 0.20 0.23 0.26 0.36 0.44 0.41 0.45 0.29 0.29 0.38 0.49 0.61 0.68 0.67
0.46 0.52 0.49 0.33 0.28 0.22 0.19 0.20 0.22 0.22 0.23 0.22 0.21 0.20 0.19 0.18 0.20 0.23 0.25 0.30 0.31 0.34 0.36 0.31 0.23 0.22 0.24 0.24 0.21 0.24 0.26 0.27 0.34 0.43 0.59 0.51 0.37 0.42 0.51 0.53 0.60 0.71 0.75
0.83 0.73 0.64 0.40 0.32 0.30 0.26 0.23 0.29 0.29 0.29 0.28 0.31 0.28 0.30 0.36 0.47 0.61 0.56 0.65 0.60 0.62 0.62 0.60 0.53 0.51 0.52 0.42 0.38 0.42 0.39 0.30 0.46 0.57 0.63 0.48 0.51 0.69 0.81 0.69 0.66 0.70 0.73
1.25 1.09 0.85 0.59 0.48 0.46 0.38 0.39 0.43 0.44 0.54 0.54 0.68 0.71 0.81 0.98 0.97 0.80 0.94 1.15 1.20 1.19 1.12 1.09 1.18 1.07 0.90 0.74 1.02 1.18 0.56 0.40 0.54 0.65 0.69 0.78 0.93 1.16 1.30 1.09 0.90 0.80 0.76
1.42 1.24 1.07 0.86 0.69 0.58 0.60 0.62 0.69 0.81 1.07 0.95 0.91 1.02 1.30 1.23 1.03 0.94 1.07 1.35 1.62 1.63 1.53 1.67 1.79 1.42 1.47 1.54 1.65 1.66 0.99 0.72 0.69 0.80 0.77 1.02 1.27 1.55 1.77 1.60 1.27 1.09 0.96
1.97 1.70 1.41 1.27 1.07 1.03 0.98 0.92 0.87 0.93 1.04 1.03 1.15 1.08 1.39 1.47 1.36 1.30 1.41 1.52 1.72 1.93 2.22 2.19 2.31 2.18 2.10 1.94 1.93 1.83 1.51 1.34 1.17 1.30 1.44 1.45 1.57 1.77 2.05 2.08 1.81 1.50 1.25
2.40 2.18 1.97 1.77 1.67 1.62 1.47 1.32 1.12 1.17 1.15 1.17 1.36 1.37 1.50 1.74 1.80 1.86 1.82 1.74 1.66 2.02 2.42 2.57 2.34 2.58 2.61 2.24 1.93 1.78 1.68 1.66 1.82 2.00 1.95 2.16 2.11 2.07 2.27 2.35 2.18 1.93 1.74
2.57 2.64 2.70 2.53 2.40 2.28 2.12 1.97 1.76 1.61 1.67 1.64 1.69 1.83 1.98 2.13 2.28 2.33 2.18 2.05 1.85 1.90 2.17 2.37 2.38 2.59 2.47 2.35 1.78 1.69 1.63 1.71 1.84 1.89 1.92 2.40 2.37 2.16 2.15 2.28 2.34 2.21 2.05
2.75 3.13 3.35 3.35 3.26 3.11 2.94 2.69 2.35 2.16 2.21 2.37 2.43 2.48 2.44 2.50 2.72 2.61 2.35 2.05 1.95 2.00 2.09 2.08 2.11 2.21 2.07 2.00 1.78 1.85 1.79 1.65 1.52 1.55 1.71 1.95 1.94 1.80 1.77 1.86 2.05 2.22 2.37
3.05 3.54 3.79 3.92 4.08 3.95 3.78 3.44 2.94 2.66 2.61 2.65 2.72 2.72 2.66 2.67 2.58 2.51 2.20 1.86 1.91 1.99 1.98 1.95 1.84 1.91 1.89 1.94 1.92 1.79 1.84 1.69 1.38 1.34 1.43 1.42 1.51 1.42 1.55 1.63 1.72 1.93 2.37
3.25 3.89 4.31 4.75 4.96 4.83 4.37 3.73 3.24 3.13 3.02 2.89 2.88 2.75 2.63 2.44 2.30 2.39 2.10 1.91 1.88 1.83 1.72 1.63 1.82 1.96 1.90 1.91 1.83 1.69 1.49 1.33 1.11 0.98 0.98 0.93 1.07 1.24 1.40 1.48 1.51 1.62 2.10
3.29 3.94 4.57 5.13 5.27 4.94 4.24 3.68 3.49 3.30 3.00 2.74 2.46 2.27 2.07 2.01 1.91 1.98 1.78 1.68 1.76 1.76 1.62 1.66 1.81 1.88 1.67 1.73 1.63 1.39 1.22 1.00 0.93 0.82 0.71 0.70 0.69 0.71 0.92 1.25 1.53 1.33 1.62
3.48 4.08 4.62 5.03 4.94 4.64 4.18 3.69 3.31 2.82 2.50 2.21 1.90 1.67 1.51 1.42 1.40 1.57 1.40 1.48 1.54 1.49 1.40 1.38 1.45 1.48 1.30 1.53 1.63 1.21 0.90 0.78 0.71 0.62 0.62 0.62 0.56 0.64 0.83 1.09 1.30 1.37 1.31
3.36 3.76 4.06 3.98 3.55 3.30 3.12 2.84 2.47 2.32 2.17 2.07 1.96 1.73 1.40 1.33 1.27 1.19 1.21 1.18 1.24 1.28 1.17 1.12 1.23 1.22 1.04 1.29 1.39 1.27 0.90 0.74 0.63 0.48 0.50 0.50 0.54 0.68 0.72 0.82 1.07 1.23 1.17
2.73 2.94 2.94 2.69 2.28 2.15 2.12 1.93 1.95 2.07 2.08 2.02 1.98 1.84 1.59 1.45 1.38 1.30 1.20 1.09 1.06 1.05 1.06 1.03 1.10 1.11 0.99 1.02 1.13 1.30 1.05 0.76 0.62 0.43 0.42 0.48 0.63 0.76 0.76 0.84 0.91 1.07 1.08
1.88 1.91 1.90 1.81 1.67 1.58 1.58 1.52 1.42 1.51 1.69 1.81 1.93 1.94 1.92 1.78 1.57 1.40 1.25 1.06 0.91 0.87 0.93 0.82 0.89 1.01 1.03 0.92 0.91 0.98 1.01 1.06 0.98 0.65 0.41 0.39 0.58 0.69 0.71 0.73 0.81 0.98 1.10
1.19 1.26 1.26 1.34 1.39 1.38 1.41 1.54 1.43 1.23 1.17 1.10 1.14 1.26 1.36 1.43 1.35 1.14 1.03 0.94 0.84 0.77 0.75 0.78 0.89 0.96 0.98 0.91 0.90 0.88 0.93 1.08 1.10 0.98 0.68 0.58 0.61 0.57 0.55 0.62 0.75 0.89 1.03
0.84 0.91 1.05 1.17 1.32 1.31 1.30 1.32 1.34 1.25 1.17 1.07 0.99 0.98 0.93 0.96 0.95 0.87 0.80 0.79 0.76 0.74 0.74 0.73 0.78 0.86 0.94 0.99 1.00 1.03 1.08 1.09 1.15 1.24 1.04 0.87 0.80 0.68 0.64 0.74 0.86 1.04 1.16

GEFSSE_prec_meanprecacc_138.txt.gz
Total_Precipitation_Accumulation
0.04 0.04 0.09 0.08 0.07 0.08 0.10 0.11 0.11 0.10 0.07 0.09 0.10 0.07 0.05 0.03 0.03 0.03 0.03 0.03 0.05 0.09 0.11 0.13 0.15 0.16 0.18 0.19 0.18 0.17 0.17 0.17 0.20 0.23 0.24 0.25 0.29 0.41 0.55 0.53 0.64 0.43 0.36
0.02 0.03 0.08 0.08 0.07 0.07 0.09 0.10 0.12 0.11 0.09 0.07 0.07 0.06 0.05 0.05 0.04 0.04 0.04 0.05 0.07 0.09 0.10 0.11 0.10 0.11 0.11 0.11 0.11 0.11 0.13 0.18 0.26 0.29 0.31 0.29 0.36 0.47 0.53 0.51 0.66 0.40 0.30
0.04 0.03 0.05 0.08 0.06 0.07 0.09 0.10 0.12 0.11 0.10 0.09 0.08 0.07 0.06 0.06 0.06 0.06 0.06 0.07 0.09 0.10 0.10 0.10 0.09 0.07 0.07 0.07 0.08 0.10 0.16 0.23 0.39 0.54 0.71 0.46 0.28 0.44 0.51 0.48 0.40 0.25 0.25
0.05 0.02 0.02 0.07 0.07 0.06 0.08 0.09 0.11 0.12 0.12 0.12 0.10 0.08 0.08 0.08 0.08 0.09 0.08 0.08 0.09 0.10 0.10 0.09 0.08 0.06 0.06 0.07 0.10 0.12 0.17 0.27 0.48 0.77 1.02 0.46 0.20 0.26 0.32 0.28 0.24 0.22 0.24
0.05 0.03 0.04 0.05 0.06 0.06 0.07 0.09 0.11 0.11 0.12 0.13 0.11 0.08 0.09 0.10 0.11 0.11 0.11 0.09 0.09 0.10 0.10 0.09 0.08 0.08 0.07 0.08 0.11 0.15 0.19 0.29 0.47 0.75 0.70 0.54 0.48 0.27 0.21 0.21 0.24 0.25 0.25
0.07 0.05 0.05 0.06 0.06 0.06 0.07 0.09 0.10 0.12 0.13 0.14 0.11 0.11 0.11 0.12 0.12 0.12 0.11 0.10 0.09 0.09 0.09 0.09 0.08 0.09 0.09 0.10 0.14 0.18 0.26 0.40 0.55 0.47 0.38 0.49 0.48 0.29 0.22 0.27 0.32 0.26 0.26
0.09 0.10 0.10 0.10 0.08 0.09 0.09 0.09 0.11 0.11 0.12 0.13 0.12 0.13 0.12 0.13 0.12 0.12 0.12 0.11 0.10 0.08 0.10 0.12 0.11 0.09 0.10 0.11 0.16 0.20 0.30 0.47 0.56 0.38 0.36 0.57 0.49 0.26 0.28 0.41 0.52 0.41 0.29
0.15 0.17 0.18 0.17 0.16 0.13 0.12 0.11 0.12 0.14 0.14 0.15 0.15 0.15 0.14 0.14 0.14 0.13 0.14 0.13 0.12 0.12 0.12 0.13 0.14 0.12 0.12 0.13 0.18 0.22 0.27 0.32 0.41 0.38 0.36 0.48 0.35 0.24 0.32 0.49 0.65 0.63 0.53
0.36 0.46 0.38 0.24 0.21 0.21 0.19 0.18 0.17 0.17 0.19 0.19 0.19 0.17 0.16 0.17 0.17 0.18 0.19 0.19 0.18 0.19 0.20 0.17 0.14 0.16 0.17 0.16 0.18 0.23 0.28 0.33 0.47 0.53 0.44 0.46 0.30 0.30 0.39 0.49 0.61 0.68 0.68
0.51 0.54 0.49 0.33 0.28 0.22 0.19 0.20 0.22 0.23 0.23 0.23 0.21 0.21 0.19 0.19 0.20 0.24 0.25 0.31 0.32 0.35 0.37 0.32 0.24 0.23 0.25 0.25 0.23 0.27 0.31 0.36 0.48 0.55 0.63 0.52 0.38 0.43 0.51 0.53 0.60 0.71 0.75
0.90 0.78 0.66 0.41 0.32 0.30 0.26 0.24 0.29 0.30 0.29 0.29 0.31 0.28 0.31 0.37 0.47 0.61 0.56 0.66 0.62 0.64 0.63 0.61 0.53 0.51 0.54 0.44 0.41 0.46 0.46 0.43 0.66 0.75 0.68 0.51 0.52 0.70 0.81 0.69 0.66 0.70 0.73
1.36 1.19 0.94 0.65 0.51 0.47 0.39 0.39 0.43 0.44 0.55 0.54 0.68 0.72 0.82 0.98 0.97 0.81 0.94 1.15 1.21 1.20 1.13 1.11 1.19 1.08 0.92 0.76 1.05 1.24 0.67 0.57 0.77 0.77 0.73 0.82 0.96 1.17 1.31 1.10 0.90 0.80 0.77
1.53 1.37 1.22 0.98 0.78 0.61 0.63 0.63 0.70 0.81 1.07 0.95 0.91 1.02 1.31 1.24 1.04 0.95 1.07 1.35 1.62 1.63 1.53 1.68 1.80 1.44 1.51 1.60 1.73 1.77 1.12 0.89 0.99 0.96 0.82 1.06 1.30 1.57 1.78 1.61 1.28 1.10 0.96
2.06 1.82 1.56 1.42 1.22 1.13 1.04 0.95 0.89 0.94 1.05 1.04 1.16 1.09 1.40 1.49 1.37 1.31 1.41 1.52 1.72 1.93 2.22 2.20 2.32 2.21 2.15 2.00 2.02 1.95 1.65 1.51 1.45 1.50 1.51 1.49 1.60 1.80 2.07 2.10 1.82 1.51 1.26
2.54 2.28 2.08 1.90 1.85 1.80 1.58 1.38 1.13 1.19 1.16 1.19 1.37 1.39 1.52 1.76 1.82 1.88 1.83 1.75 1.68 2.03 2.43 2.58 2.37 2.62 2.67 2.29 1.99 1.87 1.79 1.76 1.94 2.12 2.03 2.21 2.15 2.10 2.30 2.37 2.20 1.94 1.75
2.70 2.74 2.80 2.65 2.52 2.47 2.28 2.07 1.81 1.64 1.70 1.68 1.72 1.85 2.00 2.14 2.30 2.35 2.20 2.06 1.87 1.91 2.19 2.39 2.41 2.62 2.51 2.40 1.84 1.76 1.70 1.79 1.93 1.95 1.98 2.45 2.42 2.20 2.19 2.30 2.35 2.23 2.06
2.84 3.21 3.43 3.46 3.37 3.29 3.14 2.83 2.45 2.24 2.28 2.42 2.47 2.51 2.48 2.53 2.73 2.62 2.36 2.06 1.96 2.02 2.12 2.10 2.14 2.25 2.10 2.03 1.82 1.90 1.84 1.72 1.62 1.61 1.74 1.98 1.96 1.83 1.81 1.89 2.09 2.27 2.41
3.11 3.62 3.88 4.02 4.19 4.08 3.95 3.60 3.11 2.80 2.69 2.71 2.78 2.77 2.71 2.71 2.61 2.53 2.21 1.87 1.93 2.01 2.00 1.97 1.87 1.94 1.92 1.97 1.95 1.82 1.88 1.75 1.44 1.38 1.45 1.44 1.52 1.43 1.57 1.67 1.76 1.98 2.43
3.34 3.98 4.41 4.85 5.08 4.95 4.52 3.92 3.44 3.31 3.16 3.00 2.96 2.83 2.69 2.50 2.34 2.42 2.11 1.93 1.89 1.85 1.75 1.67 1.85 2.00 1.93 1.93 1.86 1.71 1.53 1.38 1.16 1.02 1.01 0.94 1.08 1.24 1.41 1.50 1.55 1.67 2.14
3.40 4.05 4.67 5.23 5.41 5.09 4.41 3.88 3.70 3.52 3.18 2.90 2.61 2.35 2.15 2.08 1.96 2.02 1.82 1.71 1.78 1.78 1.64 1.70 1.85 1.91 1.69 1.75 1.66 1.42 1.25 1.05 0.97 0.86 0.75 0.75 0.72 0.73 0.94 1.27 1.54 1.35 1.66
3.61 4.22 4.77 5.15 5.07 4.79 4.33 3.86 3.51 3.01 2.66 2.36 2.03 1.74 1.57 1.49 1.46 1.62 1.46 1.53 1.57 1.52 1.42 1.40 1.47 1.49 1.30 1.55 1.65 1.24 0.93 0.81 0.76 0.67 0.67 0.68 0.64 0.69 0.87 1.12 1.32 1.39 1.33
3.47 3.90 4.23 4.15 3.72 3.47 3.29 3.02 2.67 2.53 2.35 2.23 2.09 1.83 1.49 1.41 1.35 1.24 1.27 1.23 1.27 1.31 1.19 1.13 1.25 1.23 1.04 1.29 1.40 1.28 0.92 0.77 0.67 0.53 0.55 0.54 0.61 0.74 0.77 0.86 1.10 1.24 1.18
2.82 3.08 3.12 2.89 2.54 2.40 2.33 2.14 2.13 2.25 2.29 2.20 2.13 1.97 1.70 1.54 1.46 1.38 1.28 1.15 1.09 1.08 1.09 1.04 1.11 1.11 0.99 1.02 1.13 1.30 1.05 0.77 0.62 0.46 0.46 0.52 0.66 0.79 0.79 0.88 0.94 1.08 1.09
1.98 2.02 2.05 2.01 1.87 1.78 1.74 1.65 1.52 1.59 1.81 1.94 2.05 2.04 2.02 1.86 1.66 1.49 1.34 1.14 0.96 0.91 0.96 0.84 0.90 1.02 1.04 0.93 0.91 0.98 1.01 1.06 0.98 0.67 0.45 0.42 0.62 0.72 0.72 0.74 0.82 0.99 1.10
1.30 1.37 1.39 1.49 1.57 1.55 1.51 1.63 1.53 1.32 1.27 1.23 1.27 1.39 1.48 1.54 1.47 1.25 1.12 1.02 0.88 0.80 0.78 0.80 0.90 0.96 0.99 0.92 0.90 0.88 0.94 1.08 1.10 0.98 0.69 0.59 0.62 0.59 0.56 0.62 0.75 0.90 1.04
0.94 1.00 1.14 1.28 1.47 1.51 1.48 1.43 1.44 1.35 1.27 1.18 1.10 1.08 1.04 1.08 1.08 1.00 0.91 0.87 0.82 0.79 0.77 0.74 0.79 0.87 0.95 1.00 1.01 1.04 1.08 1.09 1.15 1.24 1.04 0.87 0.81 0.69 0.65 0.74 0.86 1.04 1.16

GEFSSE_prec_meanprecacc_144.txt.gz
Total_Precipitation_Accumulation
0.05 0.05 0.11 0.10 0.07 0.09 0.10 0.11 0.12 0.10 0.08 0.09 0.10 0.08 0.05 0.04 0.03 0.03 0.04 0.04 0.07 0.10 0.13 0.15 0.18 0.19 0.21 0.22 0.21 0.20 0.19 0.20 0.24 0.25 0.27 0.29 0.35 0.47 0.61 0.58 0.67 0.46 0.40
0.02 0.03 0.09 0.08 0.07 0.08 0.09 0.10 0.12 0.11 0.09 0.08 0.07 0.06 0.06 0.05 0.05 0.05 0.06 0.07 0.08 0.10 0.12 0.14 0.14 0.14 0.14 0.13 0.12 0.13 0.15 0.21 0.29 0.34 0.36 0.35 0.42 0.51 0.57 0.54 0.68 0.44 0.34
0.04 0.03 0.06 0.08 0.07 0.08 0.09 0.10 0.12 0.11 0.10 0.10 0.08 0.07 0.06 0.06 0.06 0.06 0.07 0.09 0.10 0.11 0.11 0.13 0.11 0.09 0.08 0.08 0.09 0.12 0.18 0.26 0.42 0.58 0.74 0.47 0.31 0.49 0.54 0.50 0.42 0.28 0.28
0.05 0.02 0.03 0.07 0.07 0.07 0.08 0.09 0.11 0.12 0.13 0.13 0.10 0.08 0.08 0.08 0.09 0.10 0.09 0.09 0.10 0.12 0.12 0.11 0.09 0.07 0.07 0.08 0.11 0.14 0.20 0.29 0.50 0.79 1.03 0.47 0.20 0.29 0.35 0.30 0.26 0.24 0.25
0.05 0.03 0.04 0.05 0.06 0.06 0.07 0.09 0.11 0.12 0.13 0.14 0.12 0.09 0.10 0.11 0.12 0.12 0.12 0.11 0.11 0.12 0.11 0.10 0.09 0.09 0.09 0.09 0.13 0.17 0.22 0.32 0.49 0.76 0.71 0.55 0.48 0.29 0.23 0.22 0.25 0.27 0.27
0.07 0.05 0.06 0.07 0.06 0.07 0.08 0.09 0.10 0.12 0.14 0.14 0.11 0.12 0.12 0.13 0.13 0.13 0.13 0.12 0.11 0.10 0.11 0.10 0.10 0.11 0.11 0.12 0.17 0.21 0.31 0.44 0.56 0.48 0.39 0.50 0.49 0.31 0.23 0.29 0.33 0.28 0.28
0.09 0.10 0.10 0.10 0.09 0.09 0.09 0.09 0.11 0.12 0.13 0.13 0.12 0.14 0.13 0.14 0.13 0.13 0.13 0.12 0.12 0.10 0.11 0.12 0.12 0.11 0.12 0.13 0.18 0.26 0.38 0.51 0.56 0.38 0.36 0.58 0.50 0.27 0.29 0.43 0.53 0.42 0.30
0.15 0.17 0.18 0.17 0.16 0.13 0.12 0.11 0.13 0.14 0.14 0.15 0.16 0.16 0.15 0.16 0.16 0.15 0.15 0.14 0.14 0.13 0.13 0.14 0.15 0.15 0.14 0.15 0.21 0.28 0.32 0.34 0.41 0.38 0.36 0.49 0.36 0.26 0.32 0.50 0.66 0.63 0.54
0.37 0.47 0.38 0.25 0.21 0.21 0.20 0.18 0.17 0.18 0.20 0.20 0.19 0.18 0.17 0.18 0.18 0.19 0.20 0.20 0.20 0.20 0.21 0.18 0.15 0.18 0.19 0.19 0.23 0.28 0.31 0.36 0.48 0.53 0.44 0.46 0.32 0.31 0.40 0.50 0.61 0.69 0.69
0.54 0.56 0.50 0.34 0.29 0.23 0.20 0.21 0.23 0.23 0.24 0.24 0.22 0.21 0.20 0.20 0.22 0.25 0.27 0.33 0.33 0.36 0.39 0.34 0.25 0.24 0.28 0.28 0.27 0.32 0.36 0.39 0.49 0.55 0.64 0.52 0.39 0.45 0.53 0.54 0.60 0.71 0.77
0.93 0.81 0.69 0.45 0.35 0.32 0.27 0.25 0.31 0.31 0.31 0.30 0.32 0.30 0.32 0.37 0.48 0.62 0.57 0.67 0.64 0.66 0.65 0.64 0.56 0.54 0.57 0.47 0.45 0.52 0.50 0.44 0.67 0.76 0.69 0.51 0.53 0.72 0.83 0.70 0.67 0.71 0.75
1.38 1.21 0.97 0.69 0.55 0.49 0.40 0.41 0.44 0.45 0.55 0.55 0.69 0.72 0.82 0.98 0.97 0.81 0.95 1.17 1.22 1.22 1.15 1.15 1.24 1.12 0.94 0.77 1.08 1.28 0.69 0.58 0.78 0.78 0.74 0.84 0.98 1.19 1.33 1.12 0.92 0.81 0.78
1.57 1.40 1.26 1.03 0.83 0.66 0.65 0.65 0.71 0.82 1.07 0.95 0.91 1.02 1.31 1.24 1.04 0.95 1.07 1.36 1.63 1.65 1.54 1.70 1.83 1.46 1.52 1.62 1.76 1.80 1.14 0.90 1.00 0.97 0.82 1.07 1.31 1.59 1.80 1.63 1.29 1.11 0.98
2.11 1.87 1.64 1.50 1.29 1.18 1.07 0.98 0.90 0.95 1.06 1.04 1.16 1.09 1.40 1.49 1.37 1.31 1.41 1.52 1.72 1.93 2.23 2.20 2.33 2.22 2.16 2.02 2.04 1.98 1.67 1.53 1.47 1.51 1.52 1.51 1.61 1.82 2.10 2.13 1.84 1.53 1.28
2.60 2.36 2.17 2.01 1.93 1.86 1.64 1.43 1.16 1.20 1.17 1.19 1.38 1.39 1.52 1.76 1.82 1.88 1.84 1.75 1.68 2.03 2.43 2.59 2.39 2.65 2.70 2.32 2.02 1.90 1.82 1.79 1.96 2.13 2.04 2.25 2.18 2.13 2.33 2.40 2.22 1.97 1.78
2.77 2.85 2.91 2.74 2.59 2.53 2.32 2.11 1.85 1.67 1.72 1.68 1.74 1.87 2.01 2.14 2.30 2.35 2.21 2.06 1.87 1.92 2.19 2.40 2.43 2.65 2.55 2.43 1.87 1.78 1.72 1.82 1.95 1.97 2.00 2.48 2.47 2.25 2.23 2.35 2.40 2.28 2.12
2.92 3.32 3.56 3.57 3.43 3.34 3.18 2.87 2.49 2.29 2.32 2.45 2.49 2.54 2.49 2.54 2.76 2.64 2.37 2.07 1.97 2.03 2.13 2.12 2.16 2.28 2.14 2.07 1.85 1.93 1.86 1.74 1.64 1.64 1.77 2.00 1.99 1.87 1.86 1.95 2.16 2.36 2.51
3.22 3.74 4.01 4.12 4.26 4.14 4.04 3.66 3.16 2.86 2.77 2.76 2.82 2.81 2.74 2.75 2.64 2.55 2.22 1.88 1.93 2.02 2.02 1.99 1.89 1.97 1.95 2.00 1.98 1.85 1.92 1.78 1.45 1.41 1.47 1.45 1.53 1.45 1.61 1.72 1.82 2.05 2.50
3.50 4.17 4.55 4.97 5.18 5.03 4.62 4.03 3.53 3.40 3.23 3.05 3.01 2.88 2.75 2.56 2.39 2.46 2.14 1.95 1.90 1.87 1.77 1.68 1.87 2.01 1.95 1.96 1.88 1.73 1.57 1.43 1.19 1.03 1.02 0.96 1.09 1.25 1.42 1.52 1.61 1.72 2.20
3.59 4.34 4.93 5.42 5.56 5.23 4.59 4.07 3.89 3.70 3.33 3.02 2.69 2.41 2.21 2.14 2.01 2.09 1.88 1.75 1.82 1.82 1.68 1.71 1.85 1.92 1.72 1.79 1.69 1.44 1.28 1.09 1.00 0.88 0.76 0.76 0.73 0.73 0.94 1.28 1.56 1.37 1.71
3.82 4.51 5.04 5.38 5.28 5.01 4.60 4.16 3.81 3.30 2.93 2.60 2.25 1.95 1.72 1.60 1.55 1.72 1.52 1.57 1.60 1.55 1.45 1.43 1.49 1.51 1.33 1.58 1.68 1.26 0.94 0.83 0.78 0.69 0.69 0.70 0.65 0.70 0.88 1.14 1.34 1.41 1.36
3.59 4.05 4.40 4.32 3.97 3.78 3.67 3.46 3.08 2.95 2.79 2.57 2.35 2.06 1.69 1.55 1.45 1.34 1.35 1.28 1.31 1.34 1.22 1.16 1.27 1.26 1.08 1.31 1.42 1.30 0.93 0.78 0.68 0.54 0.57 0.56 0.63 0.77 0.79 0.88 1.12 1.26 1.20
2.97 3.25 3.28 3.11 2.84 2.76 2.71 2.55 2.48 2.57 2.63 2.53 2.35 2.11 1.82 1.64 1.54 1.45 1.34 1.20 1.14 1.12 1.11 1.06 1.13 1.14 1.02 1.04 1.14 1.31 1.06 0.77 0.63 0.46 0.46 0.53 0.68 0.81 0.80 0.90 0.96 1.10 1.11
2.17 2.31 2.33 2.29 2.16 2.08 2.02 1.86 1.68 1.71 1.91 2.07 2.19 2.17 2.14 1.97 1.74 1.56 1.41 1.20 1.02 0.95 0.99 0.87 0.92 1.04 1.06 0.94 0.92 0.98 1.01 1.06 0.98 0.67 0.45 0.43 0.63 0.72 0.73 0.74 0.83 0.99 1.11
1.44 1.58 1.62 1.76 1.93 1.91 1.80 1.83 1.67 1.39 1.32 1.30 1.39 1.52 1.60 1.63 1.54 1.33 1.19 1.08 0.93 0.83 0.81 0.82 0.91 0.98 1.00 0.93 0.91 0.89 0.94 1.08 1.10 0.98 0.69 0.59 0.63 0.59 0.57 0.62 0.75 0.91 1.04
1.05 1.18 1.36 1.56 1.82 1.88 1.75 1.62 1.57 1.44 1.35 1.25 1.17 1.16 1.12 1.15 1.15 1.07 0.96 0.91 0.86 0.82 0.80 0.76 0.80 0.89 0.97 1.00 1.01 1.04 1.08 1.09 1.15 1.24 1.04 0.87 0.81 0.69 0.65 0.74 0.87 1.05 1.17

GEFSSE_prec_meanprecacc_150.txt.gz
Total_Precipitation_Accumulation
0.05 0.05 0.12 0.11 0.08 0.11 0.13 0.14 0.14 0.12 0.09 0.11 0.12 0.09 0.06 0.04 0.04 0.04 0.04 0.05 0.08 0.11 0.15 0.18 0.20 0.22 0.24 0.25 0.23 0.23 0.22 0.23 0.28 0.29 0.31 0.33 0.41 0.54 0.67 0.65 0.74 0.51 0.43
0.02 0.03 0.10 0.09 0.08 0.09 0.10 0.12 0.13 0.12 0.10 0.09 0.08 0.07 0.06 0.05 0.05 0.05 0.06 0.08 0.10 0.11 0.13 0.16 0.16 0.17 0.17 0.15 0.14 0.15 0.18 0.24 0.33 0.37 0.40 0.39 0.47 0.57 0.63 0.61 0.73 0.47 0.36
0.04 0.03 0.06 0.09 0.08 0.08 0.10 0.11 0.13 0.12 0.11 0.11 0.09 0.08 0.07 0.07 0.07 0.07 0.07 0.10 0.12 0.13 0.13 0.14 0.13 0.11 0.11 0.10 0.11 0.14 0.21 0.29 0.45 0.62 0.79 0.52 0.34 0.53 0.59 0.54 0.45 0.30 0.30
0.05 0.03 0.03 0.07 0.08 0.07 0.09 0.10 0.12 0.13 0.13 0.13 0.11 0.09 0.09 0.09 0.10 0.12 0.11 0.11 0.12 0.14 0.13 0.12 0.11 0.09 0.09 0.10 0.12 0.16 0.23 0.31 0.52 0.82 1.07 0.49 0.22 0.31 0.39 0.33 0.28 0.27 0.28
0.05 0.04 0.04 0.06 0.06 0.07 0.07 0.09 0.11 0.12 0.13 0.15 0.12 0.10 0.11 0.13 0.14 0.15 0.14 0.13 0.14 0.14 0.13 0.12 0.11 0.11 0.11 0.12 0.15 0.19 0.23 0.33 0.51 0.77 0.73 0.57 0.51 0.32 0.26 0.25 0.29 0.29 0.29
0.07 0.05 0.06 0.07 0.07 0.07 0.08 0.09 0.11 0.14 0.15 0.16 0.12 0.12 0.13 0.15 0.15 0.15 0.14 0.14 0.14 0.12 0.13 0.12 0.11 0.12 0.13 0.14 0.19 0.23 0.32 0.45 0.57 0.48 0.40 0.53 0.51 0.34 0.26 0.32 0.36 0.30 0.31
0.09 0.10 0.10 0.10 0.09 0.09 0.09 0.10 0.12 0.13 0.14 0.14 0.13 0.14 0.14 0.16 0.16 0.15 0.15 0.15 0.14 0.12 0.13 0.14 0.14 0.12 0.15 0.16 0.22 0.29 0.39 0.52 0.57 0.39 0.38 0.61 0.52 0.29 0.31 0.45 0.56 0.44 0.32
0.15 0.17 0.19 0.18 0.17 0.14 0.12 0.12 0.13 0.15 0.15 0.16 0.17 0.17 0.16 0.18 0.18 0.17 0.17 0.17 0.16 0.15 0.14 0.16 0.17 0.17 0.17 0.18 0.26 0.31 0.34 0.36 0.41 0.39 0.38 0.51 0.38 0.28 0.35 0.52 0.68 0.65 0.56
0.37 0.47 0.39 0.26 0.22 0.22 0.21 0.19 0.18 0.19 0.20 0.21 0.20 0.19 0.19 0.20 0.20 0.21 0.23 0.23 0.22 0.22 0.22 0.19 0.17 0.21 0.22 0.23 0.27 0.31 0.33 0.38 0.49 0.54 0.45 0.49 0.33 0.34 0.42 0.52 0.63 0.71 0.71
0.54 0.56 0.52 0.37 0.32 0.25 0.21 0.23 0.24 0.25 0.25 0.25 0.23 0.23 0.22 0.22 0.23 0.27 0.28 0.35 0.36 0.38 0.41 0.37 0.28 0.28 0.32 0.34 0.32 0.36 0.39 0.41 0.50 0.56 0.66 0.54 0.41 0.47 0.54 0.57 0.62 0.74 0.79
0.94 0.83 0.71 0.47 0.37 0.35 0.29 0.27 0.33 0.33 0.32 0.31 0.34 0.31 0.34 0.41 0.50 0.64 0.58 0.70 0.66 0.68 0.68 0.66 0.59 0.58 0.61 0.51 0.50 0.57 0.53 0.46 0.67 0.77 0.71 0.53 0.55 0.74 0.85 0.72 0.69 0.73 0.77
1.39 1.23 1.01 0.72 0.56 0.51 0.42 0.44 0.48 0.48 0.58 0.57 0.71 0.75 0.86 1.03 1.01 0.82 0.97 1.20 1.26 1.25 1.18 1.18 1.28 1.15 0.97 0.82 1.14 1.33 0.74 0.60 0.79 0.78 0.74 0.85 1.00 1.22 1.36 1.14 0.94 0.84 0.80
1.60 1.42 1.30 1.08 0.86 0.68 0.67 0.68 0.74 0.85 1.11 0.99 0.94 1.06 1.34 1.27 1.06 0.96 1.10 1.42 1.69 1.69 1.59 1.72 1.85 1.47 1.55 1.69 1.83 1.86 1.18 0.93 1.02 0.98 0.84 1.09 1.34 1.64 1.85 1.66 1.32 1.13 1.00
2.14 1.91 1.69 1.55 1.32 1.21 1.10 1.00 0.92 0.97 1.08 1.07 1.18 1.11 1.42 1.50 1.39 1.32 1.44 1.56 1.78 2.00 2.28 2.23 2.36 2.25 2.18 2.04 2.07 2.02 1.70 1.55 1.49 1.54 1.56 1.54 1.65 1.87 2.14 2.15 1.86 1.55 1.31
2.62 2.39 2.23 2.07 1.98 1.90 1.68 1.46 1.18 1.23 1.20 1.21 1.39 1.40 1.53 1.77 1.83 1.89 1.85 1.78 1.71 2.07 2.47 2.64 2.41 2.68 2.71 2.33 2.04 1.93 1.86 1.81 1.98 2.17 2.08 2.28 2.22 2.18 2.38 2.45 2.26 2.01 1.82
2.81 2.90 2.97 2.82 2.68 2.61 2.37 2.14 1.87 1.70 1.75 1.71 1.75 1.87 2.02 2.15 2.31 2.36 2.22 2.09 1.90 1.95 2.24 2.45 2.46 2.69 2.58 2.46 1.89 1.80 1.75 1.85 1.99 2.02 2.05 2.54 2.51 2.30 2.30 2.42 2.46 2.32 2.15
2.96 3.38 3.62 3.67 3.55 3.44 3.25 2.92 2.53 2.33 2.36 2.49 2.52 2.56 2.51 2.56 2.78 2.67 2.40 2.10 2.01 2.08 2.19 2.19 2.23 2.33 2.19 2.11 1.90 1.97 1.93 1.81 1.70 1.70 1.83 2.09 2.06 1.91 1.90 2.01 2.22 2.41 2.56
3.25 3.79 4.09 4.24 4.41 4.24 4.10 3.73 3.22 2.92 2.81 2.79 2.85 2.84 2.76 2.78 2.68 2.60 2.26 1.92 1.97 2.08 2.08 2.06 1.96 2.03 2.01 2.08 2.07 1.94 2.00 1.88 1.53 1.47 1.54 1.52 1.60 1.49 1.65 1.76 1.87 2.08 2.55
3.53 4.21 4.60 5.03 5.26 5.10 4.68 4.10 3.60 3.46 3.29 3.10 3.04 2.91 2.79 2.61 2.43 2.51 2.19 2.00 1.95 1.94 1.84 1.73 1.93 2.06 2.02 2.06 1.96 1.82 1.64 1.49 1.25 1.10 1.08 1.00 1.13 1.29 1.46 1.56 1.63 1.74 2.23
3.63 4.38 4.97 5.45 5.60 5.28 4.64 4.15 3.96 3.78 3.41 3.11 2.76 2.46 2.26 2.19 2.06 2.16 1.93 1.81 1.89 1.90 1.76 1.79 1.94 1.98 1.79 1.87 1.74 1.51 1.34 1.13 1.04 0.94 0.82 0.80 0.77 0.75 0.95 1.29 1.59 1.40 1.73
3.85 4.54 5.09 5.42 5.33 5.06 4.66 4.22 3.88 3.38 3.01 2.67 2.31 2.02 1.81 1.67 1.61 1.79 1.62 1.66 1.69 1.65 1.53 1.50 1.56 1.58 1.39 1.65 1.78 1.35 0.99 0.87 0.81 0.73 0.73 0.76 0.69 0.73 0.91 1.17 1.38 1.47 1.40
3.61 4.08 4.45 4.36 4.00 3.83 3.73 3.56 3.23 3.13 2.96 2.69 2.44 2.17 1.78 1.63 1.52 1.41 1.45 1.38 1.40 1.45 1.32 1.23 1.35 1.33 1.14 1.38 1.50 1.38 1.00 0.83 0.72 0.56 0.61 0.62 0.66 0.80 0.82 0.91 1.15 1.31 1.25
2.99 3.28 3.31 3.14 2.88 2.84 2.81 2.68 2.67 2.79 2.84 2.72 2.51 2.22 1.91 1.72 1.62 1.53 1.44 1.30 1.23 1.19 1.19 1.14 1.22 1.23 1.10 1.10 1.19 1.36 1.10 0.81 0.67 0.50 0.48 0.55 0.71 0.84 0.82 0.92 0.98 1.14 1.15
2.19 2.34 2.36 2.34 2.23 2.18 2.18 2.03 1.85 1.89 2.06 2.22 2.35 2.29 2.25 2.07 1.84 1.66 1.52 1.31 1.12 1.03 1.08 0.95 0.98 1.12 1.16 1.02 0.96 1.01 1.03 1.08 1.02 0.72 0.48 0.44 0.64 0.75 0.76 0.76 0.84 1.03 1.14
1.46 1.61 1.65 1.81 2.00 2.04 1.99 2.05 1.86 1.55 1.46 1.44 1.53 1.65 1.72 1.72 1.62 1.43 1.31 1.21 1.04 0.92 0.90 0.90 0.98 1.05 1.07 0.99 0.95 0.92 0.96 1.10 1.12 1.03 0.73 0.61 0.64 0.60 0.58 0.63 0.77 0.93 1.06
1.07 1.21 1.40 1.63 1.91 2.02 1.98 1.85 1.75 1.58 1.48 1.37 1.30 1.29 1.23 1.26 1.23 1.16 1.06 1.01 0.95 0.89 0.88 0.84 0.89 0.97 1.04 1.07 1.07 1.08 1.11 1.11 1.17 1.27 1.07 0.91 0.84 0.71 0.66 0.75 0.88 1.06 1.18

GEFSSE_prec_meanprecacc_156.txt.gz
Total_Precipitation_Accumulation
0.05 0.05 0.12 0.11 0.09 0.12 0.15 0.16 0.16 0.14 0.11 0.12 0.12 0.10 0.07 0.05 0.05 0.05 0.05 0.06 0.09 0.13 0.17 0.21 0.24 0.25 0.26 0.26 0.24 0.24 0.24 0.25 0.30 0.32 0.34 0.36 0.45 0.58 0.73 0.74 0.84 0.54 0.45
0.02 0.03 0.10 0.10 0.08 0.10 0.12 0.14 0.15 0.14 0.12 0.10 0.09 0.08 0.07 0.06 0.05 0.06 0.08 0.10 0.12 0.14 0.17 0.20 0.20 0.20 0.20 0.17 0.16 0.17 0.19 0.26 0.34 0.39 0.43 0.42 0.50 0.62 0.70 0.72 0.85 0.49 0.40
0.04 0.03 0.06 0.09 0.08 0.09 0.11 0.13 0.15 0.14 0.13 0.12 0.11 0.09 0.08 0.08 0.08 0.08 0.09 0.12 0.13 0.15 0.16 0.17 0.16 0.15 0.13 0.12 0.12 0.16 0.23 0.31 0.49 0.68 0.90 0.57 0.36 0.58 0.66 0.60 0.49 0.32 0.33
0.05 0.03 0.03 0.08 0.08 0.08 0.10 0.11 0.14 0.14 0.15 0.15 0.13 0.11 0.10 0.11 0.12 0.14 0.14 0.13 0.15 0.16 0.15 0.14 0.13 0.11 0.11 0.11 0.13 0.18 0.25 0.35 0.62 0.99 1.22 0.54 0.24 0.35 0.43 0.36 0.30 0.28 0.30
0.05 0.04 0.04 0.06 0.07 0.07 0.08 0.11 0.12 0.14 0.15 0.17 0.15 0.12 0.13 0.15 0.17 0.19 0.18 0.16 0.17 0.16 0.15 0.15 0.13 0.13 0.12 0.13 0.16 0.21 0.26 0.37 0.60 0.91 0.82 0.61 0.53 0.34 0.29 0.28 0.32 0.32 0.32
0.07 0.05 0.06 0.07 0.07 0.07 0.08 0.10 0.12 0.15 0.16 0.17 0.14 0.14 0.14 0.17 0.18 0.19 0.18 0.18 0.18 0.15 0.14 0.14 0.13 0.13 0.14 0.15 0.20 0.24 0.33 0.49 0.66 0.53 0.45 0.58 0.53 0.36 0.30 0.36 0.39 0.33 0.34
0.09 0.10 0.10 0.11 0.09 0.10 0.10 0.11 0.13 0.14 0.15 0.16 0.14 0.15 0.16 0.18 0.19 0.18 0.17 0.18 0.17 0.15 0.15 0.16 0.16 0.14 0.16 0.18 0.23 0.29 0.40 0.55 0.63 0.42 0.44 0.66 0.54 0.31 0.34 0.48 0.58 0.46 0.34
0.15 0.17 0.19 0.18 0.17 0.15 0.13 0.13 0.14 0.16 0.16 0.17 0.18 0.18 0.18 0.20 0.20 0.19 0.19 0.19 0.19 0.16 0.16 0.18 0.19 0.18 0.18 0.19 0.26 0.32 0.35 0.39 0.44 0.40 0.41 0.54 0.39 0.29 0.36 0.54 0.69 0.66 0.57
0.37 0.47 0.39 0.26 0.22 0.23 0.22 0.21 0.20 0.21 0.23 0.22 0.22 0.20 0.21 0.21 0.22 0.23 0.24 0.25 0.25 0.23 0.23 0.21 0.18 0.22 0.23 0.24 0.28 0.32 0.34 0.40 0.51 0.55 0.47 0.51 0.34 0.35 0.43 0.53 0.64 0.72 0.72
0.54 0.57 0.52 0.38 0.33 0.26 0.22 0.24 0.26 0.27 0.28 0.26 0.24 0.24 0.24 0.23 0.25 0.29 0.30 0.37 0.38 0.39 0.42 0.38 0.30 0.29 0.34 0.35 0.33 0.36 0.40 0.42 0.51 0.57 0.68 0.55 0.42 0.48 0.55 0.58 0.63 0.75 0.81
0.96 0.84 0.73 0.48 0.38 0.35 0.30 0.28 0.34 0.35 0.34 0.33 0.35 0.33 0.38 0.48 0.54 0.68 0.62 0.71 0.68 0.70 0.69 0.67 0.60 0.59 0.62 0.51 0.50 0.57 0.55 0.48 0.69 0.79 0.74 0.55 0.56 0.75 0.86 0.73 0.71 0.75 0.79
1.46 1.28 1.04 0.74 0.59 0.52 0.43 0.45 0.50 0.51 0.60 0.61 0.75 0.80 0.97 1.16 1.13 0.89 1.00 1.22 1.27 1.26 1.19 1.19 1.29 1.16 1.00 0.85 1.15 1.35 0.76 0.62 0.80 0.80 0.76 0.85 1.00 1.24 1.38 1.15 0.96 0.85 0.81
1.67 1.50 1.37 1.13 0.91 0.72 0.71 0.70 0.76 0.89 1.17 1.06 1.01 1.14 1.45 1.35 1.12 1.00 1.15 1.44 1.71 1.72 1.64 1.74 1.87 1.52 1.58 1.75 1.87 1.87 1.20 0.95 1.05 1.02 0.87 1.09 1.35 1.65 1.87 1.67 1.33 1.14 1.01
2.24 1.99 1.77 1.61 1.37 1.27 1.15 1.03 0.95 1.00 1.14 1.13 1.25 1.18 1.49 1.57 1.45 1.40 1.53 1.63 1.85 2.08 2.38 2.30 2.42 2.30 2.22 2.08 2.09 2.04 1.71 1.57 1.51 1.57 1.58 1.54 1.65 1.88 2.15 2.16 1.87 1.56 1.33
2.66 2.44 2.28 2.13 2.03 1.96 1.75 1.51 1.22 1.28 1.25 1.26 1.46 1.46 1.58 1.82 1.88 1.97 1.94 1.85 1.77 2.13 2.54 2.73 2.46 2.74 2.76 2.36 2.06 1.93 1.86 1.83 2.00 2.20 2.13 2.30 2.22 2.18 2.39 2.46 2.27 2.02 1.83
2.82 2.92 2.99 2.86 2.74 2.69 2.44 2.20 1.94 1.76 1.81 1.77 1.79 1.91 2.05 2.21 2.37 2.42 2.27 2.15 1.96 2.00 2.30 2.51 2.51 2.73 2.62 2.48 1.91 1.81 1.76 1.87 2.03 2.07 2.12 2.58 2.52 2.30 2.30 2.43 2.47 2.33 2.16
2.98 3.40 3.65 3.69 3.59 3.51 3.32 2.98 2.59 2.38 2.40 2.53 2.57 2.61 2.54 2.60 2.84 2.72 2.45 2.15 2.05 2.12 2.24 2.24 2.27 2.36 2.23 2.14 1.92 1.98 1.95 1.84 1.74 1.75 1.92 2.17 2.11 1.93 1.91 2.02 2.23 2.41 2.57
3.26 3.81 4.11 4.26 4.43 4.28 4.15 3.78 3.28 2.98 2.88 2.85 2.89 2.87 2.80 2.82 2.71 2.65 2.31 1.97 2.02 2.12 2.13 2.11 2.00 2.07 2.07 2.13 2.12 1.97 2.04 1.92 1.57 1.53 1.61 1.60 1.68 1.55 1.68 1.77 1.87 2.09 2.55
3.54 4.22 4.61 5.05 5.29 5.13 4.73 4.17 3.67 3.54 3.39 3.18 3.10 2.97 2.84 2.63 2.46 2.54 2.24 2.07 2.00 1.99 1.89 1.78 1.98 2.10 2.10 2.13 2.00 1.86 1.67 1.52 1.28 1.14 1.12 1.04 1.17 1.36 1.50 1.58 1.64 1.75 2.23
3.63 4.39 4.98 5.47 5.63 5.32 4.70 4.22 4.04 3.88 3.51 3.20 2.84 2.53 2.32 2.22 2.08 2.18 1.97 1.87 1.95 1.97 1.82 1.85 2.01 2.04 1.86 1.92 1.78 1.57 1.40 1.18 1.08 0.97 0.84 0.83 0.78 0.77 0.97 1.33 1.61 1.40 1.73
3.86 4.55 5.10 5.44 5.38 5.11 4.71 4.27 3.94 3.47 3.12 2.77 2.39 2.08 1.88 1.72 1.65 1.83 1.67 1.75 1.76 1.72 1.60 1.56 1.64 1.65 1.45 1.69 1.86 1.44 1.07 0.93 0.86 0.75 0.75 0.78 0.71 0.75 0.95 1.22 1.41 1.51 1.42
3.62 4.10 4.47 4.39 4.05 3.89 3.80 3.62 3.31 3.26 3.09 2.82 2.56 2.30 1.88 1.70 1.58 1.46 1.53 1.47 1.48 1.55 1.41 1.32 1.46 1.45 1.24 1.45 1.57 1.48 1.11 0.95 0.80 0.59 0.63 0.63 0.68 0.83 0.85 0.93 1.18 1.35 1.29
3.00 3.29 3.32 3.17 2.93 2.91 2.92 2.79 2.79 2.95 2.99 2.86 2.65 2.37 2.03 1.82 1.70 1.60 1.51 1.36 1.32 1.28 1.27 1.24 1.31 1.33 1.22 1.19 1.24 1.41 1.19 0.94 0.77 0.56 0.50 0.56 0.72 0.87 0.84 0.94 0.99 1.16 1.20
2.21 2.35 2.37 2.37 2.27 2.24 2.28 2.15 1.97 2.01 2.16 2.31 2.46 2.41 2.38 2.18 1.93 1.73 1.58 1.38 1.19 1.10 1.20 1.02 1.06 1.23 1.28 1.10 1.03 1.05 1.07 1.14 1.11 0.80 0.54 0.47 0.68 0.77 0.78 0.77 0.85 1.06 1.17
1.49 1.63 1.67 1.86 2.07 2.13 2.10 2.16 1.97 1.67 1.58 1.56 1.67 1.80 1.84 1.84 1.72 1.49 1.38 1.30 1.11 0.99 1.00 0.99 1.11 1.14 1.14 1.04 1.01 0.97 1.02 1.17 1.17 1.09 0.83 0.69 0.70 0.62 0.59 0.64 0.78 0.95 1.09
1.11 1.25 1.43 1.68 1.99 2.11 2.08 1.97 1.87 1.72 1.65 1.55 1.46 1.42 1.36 1.39 1.35 1.26 1.17 1.13 1.02 0.97 0.99 0.94 0.99 1.07 1.14 1.16 1.15 1.14 1.17 1.16 1.22 1.34 1.15 0.99 0.90 0.73 0.67 0.76 0.89 1.07 1.19

GEFSSE_prec_meanprecacc_162.txt.gz
Total_Precipitation_Accumulation
0.06 0.06 0.13 0.12 0.09 0.12 0.15 0.16 0.16 0.14 0.11 0.12 0.13 0.10 0.07 0.05 0.05 0.05 0.05 0.06 0.09 0.14 0.18 0.22 0.26 0.26 0.27 0.28 0.26 0.26 0.26 0.27 0.33 0.36 0.38 0.40 0.49 0.63 0.79 0.79 0.87 0.55 0.48
0.02 0.03 0.11 0.10 0.09 0.10 0.12 0.14 0.15 0.14 0.12 0.10 0.10 0.08 0.07 0.06 0.06 0.06 0.08 0.11 0.12 0.15 0.18 0.21 0.21 0.21 0.21 0.18 0.18 0.19 0.22 0.29 0.39 0.44 0.48 0.45 0.53 0.66 0.75 0.74 0.86 0.50 0.41
0.04 0.03 0.06 0.10 0.08 0.10 0.12 0.13 0.15 0.14 0.14 0.13 0.11 0.09 0.08 0.09 0.09 0.09 0.10 0.12 0.14 0.16 0.17 0.18 0.17 0.16 0.14 0.14 0.14 0.18 0.26 0.36 0.55 0.73 0.92 0.58 0.38 0.63 0.70 0.62 0.50 0.33 0.34
0.05 0.03 0.03 0.08 0.08 0.08 0.10 0.12 0.15 0.14 0.16 0.16 0.14 0.12 0.11 0.12 0.13 0.15 0.15 0.14 0.15 0.17 0.16 0.15 0.14 0.12 0.12 0.12 0.15 0.21 0.29 0.40 0.69 1.04 1.23 0.54 0.24 0.37 0.45 0.37 0.31 0.29 0.30
0.05 0.04 0.04 0.06 0.07 0.07 0.09 0.11 0.13 0.14 0.15 0.17 0.15 0.13 0.14 0.16 0.18 0.20 0.19 0.17 0.18 0.17 0.16 0.16 0.14 0.14 0.13 0.14 0.18 0.24 0.30 0.42 0.67 0.96 0.83 0.62 0.53 0.35 0.30 0.29 0.33 0.32 0.32
0.07 0.05 0.06 0.07 0.07 0.08 0.09 0.10 0.12 0.15 0.17 0.17 0.14 0.14 0.15 0.18 0.20 0.20 0.19 0.19 0.19 0.16 0.15 0.14 0.13 0.14 0.15 0.16 0.22 0.27 0.38 0.55 0.71 0.56 0.47 0.58 0.53 0.37 0.31 0.37 0.40 0.33 0.34
0.10 0.10 0.10 0.11 0.10 0.10 0.10 0.11 0.13 0.14 0.15 0.16 0.14 0.15 0.16 0.19 0.20 0.19 0.18 0.19 0.18 0.15 0.16 0.17 0.17 0.15 0.17 0.19 0.25 0.32 0.45 0.62 0.67 0.45 0.45 0.67 0.55 0.32 0.36 0.49 0.59 0.47 0.35
0.15 0.17 0.19 0.18 0.17 0.15 0.14 0.13 0.14 0.16 0.17 0.18 0.19 0.18 0.18 0.21 0.21 0.20 0.20 0.20 0.19 0.17 0.16 0.18 0.20 0.19 0.19 0.21 0.28 0.34 0.40 0.45 0.47 0.43 0.42 0.54 0.39 0.30 0.37 0.55 0.69 0.66 0.57
0.38 0.47 0.39 0.26 0.22 0.23 0.22 0.21 0.20 0.21 0.23 0.23 0.22 0.21 0.22 0.22 0.23 0.24 0.25 0.26 0.25 0.23 0.24 0.21 0.19 0.22 0.24 0.25 0.29 0.33 0.38 0.45 0.55 0.58 0.48 0.51 0.35 0.35 0.43 0.53 0.64 0.72 0.73
0.55 0.57 0.52 0.38 0.33 0.26 0.22 0.24 0.26 0.27 0.29 0.27 0.25 0.25 0.25 0.24 0.26 0.30 0.31 0.38 0.38 0.40 0.42 0.38 0.30 0.29 0.34 0.36 0.34 0.38 0.43 0.46 0.54 0.59 0.69 0.56 0.43 0.48 0.56 0.58 0.63 0.75 0.82
0.98 0.86 0.73 0.48 0.38 0.35 0.30 0.28 0.34 0.35 0.34 0.34 0.37 0.35 0.40 0.49 0.55 0.69 0.62 0.72 0.68 0.70 0.69 0.68 0.61 0.59 0.63 0.52 0.52 0.60 0.61 0.56 0.75 0.83 0.76 0.56 0.57 0.76 0.86 0.74 0.71 0.75 0.80
1.50 1.31 1.06 0.76 0.60 0.53 0.44 0.45 0.51 0.51 0.60 0.61 0.75 0.81 0.98 1.18 1.15 0.90 1.01 1.23 1.27 1.27 1.20 1.20 1.31 1.18 1.01 0.87 1.17 1.38 0.84 0.71 0.88 0.84 0.78 0.86 1.01 1.24 1.38 1.15 0.96 0.86 0.81
1.68 1.51 1.37 1.15 0.92 0.73 0.72 0.70 0.76 0.89 1.17 1.07 1.01 1.14 1.46 1.36 1.13 1.01 1.16 1.45 1.72 1.72 1.65 1.76 1.90 1.55 1.62 1.79 1.91 1.93 1.29 1.05 1.16 1.10 0.90 1.11 1.36 1.66 1.87 1.68 1.34 1.15 1.02
2.24 2.00 1.77 1.62 1.38 1.29 1.18 1.04 0.95 1.01 1.14 1.13 1.25 1.19 1.50 1.60 1.46 1.41 1.54 1.64 1.85 2.08 2.42 2.33 2.45 2.33 2.25 2.11 2.14 2.11 1.83 1.72 1.60 1.64 1.61 1.57 1.67 1.89 2.16 2.17 1.88 1.56 1.33
2.67 2.44 2.29 2.14 2.04 1.98 1.78 1.55 1.23 1.29 1.25 1.28 1.47 1.47 1.59 1.84 1.91 1.98 1.95 1.87 1.79 2.14 2.56 2.77 2.50 2.78 2.80 2.40 2.09 1.98 1.93 1.91 2.07 2.27 2.16 2.32 2.24 2.20 2.40 2.46 2.28 2.03 1.84
2.83 2.93 3.00 2.87 2.75 2.71 2.47 2.25 1.98 1.79 1.83 1.79 1.81 1.93 2.07 2.26 2.40 2.44 2.29 2.20 1.99 2.02 2.32 2.55 2.56 2.78 2.66 2.51 1.94 1.86 1.81 1.92 2.09 2.13 2.15 2.60 2.55 2.33 2.33 2.45 2.48 2.33 2.17
2.99 3.41 3.65 3.70 3.61 3.55 3.38 3.04 2.64 2.43 2.44 2.56 2.60 2.64 2.58 2.66 2.87 2.73 2.48 2.18 2.08 2.14 2.27 2.28 2.31 2.40 2.26 2.18 1.96 2.03 1.99 1.88 1.78 1.81 1.95 2.18 2.12 1.95 1.94 2.04 2.25 2.43 2.58
3.27 3.82 4.12 4.27 4.45 4.32 4.21 3.83 3.34 3.04 2.93 2.89 2.95 2.94 2.85 2.86 2.74 2.66 2.33 1.99 2.04 2.15 2.15 2.13 2.03 2.12 2.14 2.20 2.17 2.03 2.11 1.97 1.61 1.57 1.64 1.61 1.69 1.56 1.69 1.79 1.90 2.11 2.57
3.55 4.23 4.62 5.07 5.31 5.16 4.77 4.21 3.75 3.63 3.46 3.23 3.18 3.06 2.89 2.67 2.48 2.55 2.25 2.09 2.02 2.01 1.92 1.80 2.00 2.14 2.14 2.17 2.04 1.92 1.74 1.58 1.33 1.19 1.17 1.07 1.18 1.37 1.51 1.59 1.65 1.76 2.25
3.65 4.40 5.00 5.49 5.65 5.34 4.75 4.28 4.09 3.94 3.58 3.28 2.94 2.67 2.40 2.27 2.11 2.21 1.99 1.90 1.98 2.00 1.84 1.87 2.04 2.08 1.90 1.96 1.83 1.64 1.47 1.24 1.12 1.01 0.87 0.86 0.81 0.79 0.99 1.33 1.62 1.41 1.75
3.88 4.58 5.13 5.47 5.41 5.15 4.76 4.33 4.01 3.52 3.16 2.83 2.46 2.23 2.02 1.80 1.71 1.90 1.70 1.79 1.80 1.75 1.62 1.58 1.67 1.68 1.50 1.74 1.93 1.52 1.17 1.01 0.91 0.79 0.77 0.81 0.74 0.80 0.99 1.24 1.42 1.52 1.43
3.65 4.13 4.50 4.43 4.10 3.94 3.86 3.70 3.40 3.34 3.18 2.91 2.66 2.43 2.05 1.83 1.68 1.54 1.58 1.50 1.51 1.59 1.44 1.35 1.48 1.48 1.27 1.48 1.60 1.53 1.17 1.02 0.87 0.63 0.66 0.66 0.71 0.87 0.90 0.97 1.20 1.37 1.30
3.04 3.32 3.36 3.21 2.97 2.96 2.99 2.88 2.90 3.06 3.09 2.98 2.77 2.48 2.18 1.99 1.85 1.71 1.57 1.41 1.36 1.31 1.30 1.27 1.34 1.37 1.27 1.22 1.27 1.43 1.21 0.96 0.80 0.59 0.53 0.58 0.76 0.93 0.89 0.97 1.02 1.18 1.21
2.23 2.38 2.41 2.41 2.32 2.30 2.33 2.22 2.07 2.12 2.26 2.41 2.59 2.57 2.52 2.35 2.10 1.86 1.69 1.45 1.23 1.13 1.23 1.05 1.10 1.28 1.33 1.14 1.07 1.08 1.09 1.19 1.13 0.83 0.56 0.50 0.70 0.80 0.83 0.81 0.89 1.10 1.20
1.52 1.66 1.71 1.92 2.15 2.20 2.17 2.24 2.08 1.79 1.71 1.70 1.79 1.92 1.98 2.01 1.88 1.63 1.49 1.38 1.16 1.03 1.04 1.03 1.15 1.17 1.17 1.07 1.05 1.02 1.09 1.22 1.19 1.11 0.84 0.72 0.72 0.65 0.63 0.68 0.82 0.99 1.12
1.14 1.29 1.48 1.75 2.07 2.20 2.20 2.11 2.02 1.85 1.78 1.67 1.61 1.59 1.51 1.56 1.53 1.41 1.29 1.24 1.11 1.04 1.04 1.00 1.05 1.11 1.16 1.19 1.18 1.18 1.21 1.20 1.24 1.36 1.18 1.00 0.91 0.75 0.70 0.80 0.93 1.10 1.23

GEFSSE_prec_meanprecacc_168.txt.gz
Total_Precipitation_Accumulation
0.08 0.09 0.18 0.14 0.11 0.13 0.15 0.17 0.17 0.14 0.11 0.13 0.13 0.10 0.07 0.06 0.05 0.05 0.06 0.07 0.10 0.15 0.19 0.24 0.28 0.28 0.31 0.32 0.30 0.30 0.29 0.30 0.37 0.41 0.44 0.46 0.54 0.69 0.86 0.84 0.89 0.58 0.53
0.03 0.05 0.14 0.12 0.10 0.11 0.13 0.15 0.16 0.15 0.12 0.11 0.10 0.09 0.07 0.07 0.06 0.07 0.09 0.11 0.13 0.16 0.19 0.23 0.23 0.23 0.23 0.21 0.21 0.22 0.25 0.34 0.43 0.48 0.54 0.51 0.61 0.74 0.81 0.77 0.88 0.52 0.45
0.05 0.03 0.08 0.12 0.09 0.10 0.13 0.14 0.16 0.14 0.14 0.13 0.12 0.10 0.09 0.09 0.10 0.09 0.10 0.13 0.15 0.17 0.19 0.20 0.18 0.17 0.16 0.15 0.16 0.21 0.29 0.40 0.60 0.77 0.96 0.60 0.43 0.69 0.74 0.66 0.53 0.35 0.36
0.05 0.03 0.03 0.09 0.09 0.08 0.11 0.12 0.15 0.15 0.16 0.16 0.14 0.12 0.12 0.12 0.14 0.16 0.16 0.15 0.16 0.18 0.17 0.17 0.16 0.14 0.13 0.14 0.17 0.23 0.32 0.43 0.73 1.06 1.24 0.55 0.25 0.40 0.48 0.40 0.34 0.31 0.33
0.05 0.04 0.04 0.06 0.08 0.08 0.09 0.12 0.13 0.14 0.16 0.18 0.16 0.13 0.14 0.16 0.19 0.20 0.20 0.18 0.20 0.19 0.17 0.18 0.15 0.15 0.14 0.15 0.20 0.27 0.32 0.44 0.70 0.97 0.84 0.62 0.54 0.38 0.32 0.32 0.35 0.35 0.34
0.07 0.06 0.06 0.08 0.08 0.08 0.09 0.11 0.13 0.16 0.17 0.17 0.14 0.15 0.15 0.19 0.21 0.21 0.20 0.20 0.20 0.17 0.17 0.16 0.15 0.16 0.16 0.18 0.25 0.31 0.42 0.58 0.72 0.57 0.48 0.58 0.53 0.39 0.33 0.39 0.41 0.35 0.36
0.10 0.10 0.11 0.11 0.10 0.11 0.11 0.12 0.14 0.15 0.16 0.17 0.15 0.16 0.17 0.21 0.21 0.20 0.19 0.20 0.19 0.16 0.17 0.18 0.19 0.16 0.18 0.21 0.28 0.35 0.48 0.65 0.68 0.45 0.45 0.67 0.55 0.33 0.37 0.50 0.60 0.48 0.36
0.15 0.18 0.19 0.19 0.18 0.15 0.14 0.13 0.15 0.17 0.17 0.18 0.19 0.19 0.19 0.22 0.23 0.22 0.21 0.21 0.20 0.17 0.17 0.20 0.22 0.21 0.21 0.24 0.32 0.38 0.43 0.47 0.48 0.43 0.42 0.54 0.40 0.31 0.38 0.55 0.70 0.67 0.59
0.38 0.47 0.39 0.27 0.23 0.23 0.22 0.21 0.20 0.22 0.24 0.23 0.23 0.21 0.22 0.23 0.24 0.25 0.27 0.27 0.26 0.24 0.24 0.22 0.20 0.24 0.26 0.29 0.33 0.38 0.42 0.47 0.56 0.58 0.48 0.51 0.35 0.35 0.44 0.53 0.65 0.74 0.74
0.56 0.57 0.52 0.38 0.33 0.26 0.22 0.25 0.27 0.28 0.29 0.27 0.25 0.26 0.26 0.25 0.27 0.32 0.32 0.39 0.39 0.40 0.43 0.40 0.31 0.31 0.37 0.40 0.39 0.43 0.47 0.48 0.55 0.60 0.70 0.57 0.44 0.49 0.57 0.59 0.64 0.77 0.83
0.99 0.86 0.74 0.48 0.38 0.35 0.30 0.28 0.35 0.36 0.35 0.35 0.37 0.36 0.42 0.50 0.56 0.70 0.63 0.73 0.69 0.71 0.71 0.69 0.63 0.62 0.66 0.55 0.57 0.65 0.64 0.57 0.75 0.83 0.76 0.57 0.58 0.76 0.87 0.75 0.72 0.76 0.81
1.50 1.31 1.06 0.77 0.60 0.53 0.44 0.46 0.51 0.51 0.61 0.61 0.76 0.82 0.99 1.18 1.15 0.90 1.02 1.24 1.29 1.28 1.22 1.22 1.34 1.20 1.02 0.88 1.20 1.41 0.85 0.72 0.89 0.85 0.79 0.87 1.03 1.25 1.39 1.17 0.97 0.87 0.82
1.68 1.51 1.37 1.15 0.92 0.73 0.72 0.70 0.77 0.89 1.18 1.07 1.01 1.14 1.46 1.36 1.13 1.02 1.16 1.45 1.73 1.73 1.65 1.76 1.91 1.56 1.63 1.80 1.93 1.95 1.32 1.09 1.18 1.11 0.91 1.13 1.38 1.68 1.88 1.70 1.35 1.16 1.02
2.25 2.00 1.78 1.62 1.39 1.29 1.19 1.06 0.96 1.01 1.14 1.13 1.25 1.19 1.50 1.60 1.47 1.41 1.54 1.64 1.85 2.08 2.42 2.33 2.46 2.34 2.26 2.13 2.17 2.14 1.87 1.76 1.64 1.67 1.63 1.58 1.68 1.91 2.18 2.18 1.89 1.58 1.34
2.69 2.46 2.31 2.16 2.05 1.99 1.80 1.58 1.26 1.30 1.26 1.29 1.47 1.48 1.60 1.85 1.92 1.99 1.95 1.87 1.79 2.15 2.57 2.78 2.51 2.79 2.81 2.41 2.11 2.00 1.95 1.93 2.11 2.31 2.17 2.34 2.27 2.22 2.43 2.47 2.28 2.05 1.86
2.85 2.96 3.04 2.90 2.76 2.72 2.49 2.28 2.01 1.81 1.85 1.80 1.82 1.94 2.08 2.27 2.41 2.44 2.29 2.20 2.00 2.03 2.33 2.56 2.57 2.79 2.68 2.53 1.96 1.87 1.82 1.95 2.13 2.17 2.17 2.62 2.59 2.37 2.36 2.48 2.50 2.36 2.20
3.01 3.45 3.71 3.74 3.62 3.56 3.42 3.08 2.69 2.48 2.48 2.59 2.62 2.66 2.60 2.67 2.87 2.74 2.48 2.18 2.08 2.15 2.28 2.29 2.33 2.42 2.29 2.21 1.99 2.05 2.01 1.92 1.82 1.84 1.97 2.19 2.14 1.99 1.98 2.09 2.30 2.47 2.62
3.30 3.86 4.17 4.30 4.48 4.35 4.25 3.88 3.39 3.10 2.98 2.93 2.98 2.97 2.87 2.87 2.76 2.68 2.34 2.01 2.06 2.17 2.17 2.16 2.05 2.14 2.17 2.23 2.20 2.05 2.13 2.01 1.64 1.60 1.66 1.63 1.70 1.57 1.72 1.84 1.96 2.16 2.61
3.58 4.27 4.66 5.11 5.36 5.23 4.88 4.32 3.85 3.70 3.51 3.29 3.24 3.13 2.95 2.73 2.55 2.59 2.28 2.12 2.05 2.05 1.96 1.85 2.03 2.16 2.17 2.21 2.08 1.97 1.78 1.60 1.36 1.22 1.20 1.09 1.20 1.38 1.52 1.62 1.72 1.82 2.29
3.68 4.44 5.03 5.54 5.70 5.40 4.84 4.38 4.19 4.02 3.67 3.37 3.04 2.78 2.51 2.36 2.20 2.28 2.04 1.95 2.03 2.07 1.90 1.91 2.08 2.11 1.93 2.01 1.90 1.72 1.52 1.27 1.15 1.03 0.89 0.88 0.83 0.81 1.00 1.34 1.63 1.43 1.78
3.91 4.60 5.16 5.51 5.45 5.20 4.82 4.40 4.09 3.61 3.26 2.94 2.59 2.38 2.15 1.90 1.79 1.97 1.78 1.86 1.87 1.82 1.67 1.62 1.70 1.71 1.52 1.78 1.99 1.59 1.21 1.04 0.93 0.80 0.78 0.83 0.76 0.82 1.01 1.25 1.43 1.52 1.44
3.67 4.15 4.53 4.47 4.14 4.00 3.92 3.77 3.48 3.45 3.31 3.05 2.80 2.56 2.17 1.95 1.78 1.61 1.65 1.56 1.57 1.64 1.48 1.38 1.51 1.51 1.31 1.54 1.66 1.62 1.22 1.04 0.88 0.63 0.66 0.67 0.75 0.91 0.93 0.99 1.21 1.37 1.31
3.07 3.35 3.40 3.26 3.03 3.03 3.06 2.96 2.99 3.17 3.20 3.08 2.87 2.59 2.31 2.14 1.99 1.83 1.65 1.48 1.44 1.36 1.34 1.31 1.39 1.41 1.32 1.27 1.31 1.47 1.23 0.97 0.81 0.59 0.54 0.59 0.78 0.95 0.92 1.00 1.03 1.19 1.24
2.27 2.42 2.45 2.46 2.40 2.39 2.43 2.32 2.18 2.23 2.37 2.52 2.73 2.73 2.69 2.49 2.23 1.97 1.78 1.54 1.32 1.21 1.29 1.10 1.15 1.33 1.39 1.19 1.12 1.10 1.11 1.20 1.14 0.83 0.57 0.50 0.71 0.81 0.84 0.83 0.91 1.12 1.24
1.55 1.71 1.77 2.00 2.26 2.33 2.30 2.37 2.23 1.96 1.88 1.88 1.98 2.09 2.11 2.11 1.99 1.75 1.62 1.51 1.26 1.10 1.10 1.09 1.21 1.22 1.23 1.12 1.10 1.07 1.13 1.26 1.21 1.11 0.85 0.72 0.73 0.66 0.64 0.70 0.84 1.03 1.17
1.18 1.35 1.55 1.83 2.17 2.34 2.36 2.30 2.22 2.06 1.97 1.82 1.72 1.67 1.59 1.64 1.62 1.52 1.43 1.37 1.21 1.11 1.11 1.07 1.13 1.17 1.22 1.23 1.22 1.22 1.24 1.24 1.27 1.38 1.19 1.01 0.92 0.76 0.72 0.83 0.96 1.13 1.26

GEFSSE_prec_meanprecacc_174.txt.gz
Total_Precipitation_Accumulation
0.09 0.12 0.24 0.18 0.13 0.16 0.18 0.19 0.18 0.16 0.13 0.14 0.14 0.12 0.08 0.06 0.06 0.06 0.07 0.08 0.12 0.17 0.21 0.25 0.30 0.30 0.33 0.35 0.34 0.34 0.33 0.33 0.40 0.44 0.48 0.50 0.58 0.73 0.91 0.89 0.95 0.62 0.58
0.03 0.06 0.19 0.15 0.12 0.12 0.14 0.16 0.17 0.16 0.14 0.12 0.11 0.10 0.08 0.07 0.07 0.08 0.10 0.13 0.15 0.18 0.21 0.25 0.25 0.25 0.25 0.24 0.24 0.25 0.29 0.37 0.46 0.53 0.58 0.54 0.65 0.79 0.86 0.82 0.94 0.57 0.47
0.05 0.04 0.10 0.14 0.11 0.12 0.14 0.15 0.17 0.15 0.15 0.14 0.12 0.10 0.10 0.10 0.11 0.11 0.12 0.15 0.17 0.19 0.21 0.22 0.21 0.19 0.17 0.17 0.17 0.23 0.32 0.44 0.64 0.81 1.00 0.65 0.46 0.73 0.78 0.71 0.59 0.39 0.39
0.05 0.03 0.05 0.11 0.11 0.10 0.12 0.13 0.16 0.15 0.16 0.17 0.15 0.13 0.12 0.13 0.16 0.18 0.18 0.18 0.19 0.21 0.19 0.19 0.18 0.16 0.15 0.15 0.18 0.26 0.35 0.46 0.77 1.09 1.28 0.59 0.28 0.43 0.52 0.45 0.39 0.35 0.36
0.05 0.04 0.05 0.08 0.09 0.09 0.10 0.12 0.14 0.15 0.16 0.18 0.16 0.14 0.15 0.17 0.21 0.23 0.23 0.21 0.22 0.21 0.19 0.20 0.18 0.17 0.15 0.17 0.21 0.28 0.34 0.46 0.72 0.99 0.87 0.66 0.58 0.42 0.36 0.36 0.40 0.40 0.38
0.08 0.06 0.07 0.09 0.09 0.09 0.10 0.11 0.13 0.16 0.18 0.18 0.15 0.16 0.17 0.21 0.23 0.23 0.21 0.21 0.22 0.19 0.19 0.19 0.18 0.18 0.17 0.19 0.26 0.32 0.44 0.60 0.72 0.57 0.49 0.61 0.57 0.41 0.36 0.43 0.45 0.39 0.38
0.10 0.11 0.12 0.13 0.12 0.12 0.12 0.12 0.14 0.15 0.16 0.17 0.16 0.17 0.19 0.23 0.23 0.22 0.21 0.22 0.21 0.18 0.19 0.20 0.21 0.18 0.20 0.22 0.29 0.37 0.50 0.66 0.69 0.46 0.46 0.69 0.58 0.35 0.40 0.53 0.63 0.50 0.38
0.16 0.18 0.20 0.21 0.19 0.17 0.15 0.14 0.15 0.17 0.18 0.20 0.21 0.20 0.20 0.23 0.25 0.24 0.23 0.23 0.22 0.19 0.19 0.21 0.23 0.22 0.24 0.27 0.35 0.40 0.45 0.48 0.48 0.43 0.43 0.58 0.42 0.32 0.40 0.57 0.72 0.69 0.61
0.38 0.47 0.40 0.28 0.24 0.24 0.24 0.22 0.21 0.23 0.25 0.25 0.25 0.23 0.24 0.24 0.27 0.27 0.29 0.28 0.27 0.25 0.26 0.24 0.22 0.26 0.29 0.32 0.37 0.41 0.44 0.48 0.56 0.59 0.49 0.54 0.37 0.37 0.46 0.55 0.67 0.76 0.76
0.56 0.57 0.52 0.39 0.34 0.27 0.23 0.26 0.28 0.29 0.30 0.29 0.27 0.27 0.28 0.27 0.29 0.33 0.33 0.40 0.40 0.42 0.45 0.42 0.35 0.34 0.39 0.43 0.42 0.46 0.50 0.50 0.55 0.61 0.71 0.58 0.45 0.50 0.58 0.60 0.66 0.79 0.85
0.99 0.87 0.74 0.49 0.39 0.37 0.31 0.29 0.37 0.37 0.36 0.36 0.39 0.38 0.45 0.55 0.59 0.72 0.64 0.74 0.70 0.72 0.73 0.72 0.67 0.66 0.68 0.58 0.60 0.68 0.66 0.58 0.76 0.85 0.78 0.57 0.59 0.78 0.89 0.76 0.73 0.78 0.83
1.51 1.32 1.06 0.77 0.61 0.54 0.45 0.47 0.53 0.53 0.63 0.64 0.79 0.85 1.04 1.24 1.20 0.92 1.03 1.25 1.29 1.29 1.23 1.24 1.37 1.23 1.05 0.91 1.22 1.44 0.87 0.73 0.90 0.86 0.80 0.88 1.04 1.28 1.42 1.18 0.98 0.88 0.84
1.68 1.51 1.38 1.15 0.93 0.73 0.73 0.72 0.78 0.91 1.20 1.09 1.04 1.17 1.50 1.39 1.16 1.03 1.18 1.48 1.75 1.74 1.67 1.77 1.92 1.56 1.65 1.83 1.97 1.98 1.33 1.09 1.19 1.12 0.92 1.14 1.39 1.71 1.92 1.71 1.37 1.17 1.04
2.25 2.01 1.78 1.63 1.39 1.31 1.20 1.08 0.98 1.03 1.16 1.16 1.27 1.21 1.52 1.62 1.49 1.44 1.58 1.67 1.88 2.11 2.45 2.35 2.48 2.36 2.29 2.15 2.20 2.18 1.89 1.77 1.67 1.69 1.65 1.60 1.71 1.95 2.21 2.20 1.91 1.59 1.37
2.69 2.47 2.32 2.17 2.06 2.01 1.82 1.61 1.29 1.33 1.28 1.31 1.50 1.49 1.61 1.86 1.93 2.00 1.98 1.91 1.81 2.17 2.59 2.80 2.53 2.81 2.83 2.44 2.14 2.03 1.99 1.95 2.14 2.32 2.18 2.36 2.29 2.25 2.47 2.51 2.31 2.06 1.89
2.86 2.96 3.04 2.90 2.77 2.74 2.51 2.30 2.03 1.84 1.87 1.82 1.83 1.96 2.10 2.28 2.42 2.46 2.32 2.24 2.03 2.05 2.35 2.58 2.59 2.82 2.70 2.56 1.99 1.90 1.85 1.99 2.17 2.19 2.19 2.66 2.63 2.40 2.40 2.53 2.54 2.39 2.23
3.02 3.45 3.71 3.74 3.63 3.57 3.43 3.09 2.72 2.52 2.52 2.63 2.65 2.68 2.62 2.69 2.89 2.76 2.53 2.23 2.13 2.18 2.31 2.32 2.35 2.44 2.31 2.23 2.01 2.08 2.04 1.95 1.86 1.88 2.01 2.23 2.19 2.03 2.02 2.14 2.36 2.51 2.65
3.30 3.87 4.17 4.32 4.50 4.36 4.27 3.91 3.44 3.16 3.02 2.96 3.01 3.00 2.89 2.90 2.80 2.71 2.38 2.04 2.10 2.22 2.21 2.19 2.07 2.17 2.20 2.27 2.26 2.10 2.17 2.05 1.68 1.64 1.70 1.67 1.74 1.61 1.78 1.89 2.00 2.21 2.65
3.59 4.28 4.67 5.12 5.38 5.25 4.92 4.40 3.94 3.78 3.55 3.33 3.28 3.16 2.99 2.78 2.62 2.65 2.33 2.18 2.10 2.12 2.03 1.88 2.08 2.21 2.22 2.27 2.14 2.03 1.83 1.64 1.40 1.25 1.23 1.11 1.24 1.43 1.60 1.68 1.75 1.84 2.32
3.69 4.45 5.05 5.56 5.72 5.43 4.88 4.43 4.25 4.07 3.72 3.43 3.10 2.83 2.55 2.41 2.24 2.34 2.11 2.04 2.12 2.15 1.99 1.99 2.18 2.19 1.99 2.09 1.94 1.77 1.57 1.30 1.17 1.06 0.92 0.91 0.88 0.84 1.05 1.39 1.69 1.45 1.79
3.92 4.61 5.18 5.54 5.48 5.24 4.85 4.46 4.16 3.67 3.33 3.02 2.69 2.48 2.23 1.97 1.87 2.07 1.88 1.98 2.00 1.93 1.76 1.73 1.81 1.81 1.59 1.87 2.07 1.66 1.26 1.06 0.95 0.82 0.81 0.86 0.79 0.84 1.03 1.30 1.49 1.58 1.48
3.67 4.16 4.55 4.50 4.17 4.02 3.96 3.83 3.55 3.54 3.39 3.17 2.94 2.68 2.27 2.05 1.88 1.72 1.79 1.71 1.71 1.77 1.58 1.48 1.62 1.62 1.40 1.64 1.76 1.70 1.27 1.07 0.90 0.63 0.67 0.69 0.77 0.95 0.96 1.02 1.27 1.43 1.36
3.07 3.37 3.42 3.29 3.07 3.06 3.10 3.02 3.06 3.27 3.30 3.20 3.01 2.73 2.43 2.26 2.12 1.95 1.79 1.63 1.57 1.48 1.46 1.42 1.49 1.53 1.44 1.38 1.42 1.58 1.28 1.00 0.84 0.60 0.54 0.60 0.81 1.00 0.96 1.04 1.07 1.23 1.28
2.29 2.44 2.48 2.52 2.48 2.46 2.50 2.42 2.30 2.34 2.48 2.64 2.85 2.87 2.83 2.61 2.35 2.09 1.90 1.66 1.43 1.30 1.41 1.20 1.25 1.44 1.52 1.30 1.23 1.21 1.19 1.26 1.20 0.88 0.59 0.51 0.73 0.85 0.88 0.86 0.94 1.16 1.28
1.58 1.73 1.80 2.07 2.34 2.41 2.39 2.44 2.30 2.04 1.97 2.00 2.13 2.26 2.25 2.23 2.09 1.84 1.72 1.61 1.37 1.19 1.19 1.18 1.32 1.33 1.33 1.25 1.22 1.18 1.24 1.35 1.28 1.17 0.90 0.76 0.77 0.68 0.66 0.72 0.87 1.06 1.20
1.21 1.37 1.58 1.87 2.22 2.41 2.45 2.39 2.29 2.14 2.08 1.96 1.90 1.87 1.74 1.77 1.74 1.63 1.53 1.49 1.32 1.20 1.20 1.17 1.24 1.28 1.32 1.35 1.34 1.30 1.33 1.32 1.33 1.44 1.25 1.07 0.98 0.79 0.73 0.84 0.98 1.15 1.28